CZ-3A R/B, 41435

Orbit data source: Space-Track

CZ-3A R/B, 41435 is space debris in HEO originally from a launch on Tue, 29 Mar 2016 UTC launched from the Xichang Space Center, China (XSC). Debris objects in space refer to the collection of defunct objects orbiting the Earth. Examples of debris include non-operational satellites, rocket bodies, and fragments generated from explosions, collisions, or faulty payload assembly.

Loading next visibility...
Identifier
41435, 2016-021B
Orbit
HEO
Country
Flag of CNCN / PRC
Related business
Manufacturer
CALT
Mission
Spacecraft
Bus & Motor
CZ-3A STAGE 3, Unknown motor
Mass
~2,800 kg wet, ~2,800 kg dry
Launch date (UTC)
2016-03-29 (10 years ago)
Launch vehicle
Unknown
Launch site
Xichang Space Center, China (XSC)
Object type
Payload
Rocket body
Debris
Shape & HBR
Cyl + 1 Nozzle, 6.2 m
Radar Cross Section
32.704 m², Large (>1 m²)

Expand to show TLE details & history
Last TLE update: 2 days ago

TLE from 2 days ago
0 CZ-3A R/B
1 41435U 16021B   25287.34007616 -.00000008  00000-0  00000-0 0  9997
2 41435  55.0794  47.6925 6635727 245.3638  34.4262  2.39503979 83097
Epoch: 2025-10-14T08:09Z
TLE epoch observation values (Epoch: 2025-10-14T08:09:42.580Z)
Latitude
0.00002°
Longitude
-97.89743°
Altitude
11,919.108 km
Speed
5.165 km/s
True Right ascension
03h 10m 38s
True Declination
0° 00' 00"
Sunlit
Object was in daylight at epoch
Visualization orbit readout
Latitude
Unknown
Longitude
Unknown
Altitude
Unknown
Speed
Unknown
Apparent Right ascension
Unknown
Apparent Declination
Unknown
Sunlit
N/A
Visualization observer readout
Local Sidereal Time
21:38:22
Azimuth
Unknown
Elevation
Unknown
Doppler factor
Unknown
Orbital elements
Apogee altitude
32,877.441 km
Perigee altitude
1,560.589 km
Semi-major axis
23,597.152 km
Eccentricity
0.66357
Inclination
55.0794°
RAAN
47.6925°
Arg. of periapsis
245.3638°
True anomaly
114.77082°
Mean anomaly
34.4262°
Eccentric anomaly
70.19795°
Mean motion
0.59876 °/min
Orbital period
601.24 mins
BSTAR
0
Loading maneuver chart data...
Computing Atmospheric mass density...
Loading historical data...
Loading historical data...
Loading historical data...
Loading historical data...
Loading historical data...
Loading historical data...
Loading historical data...
Other satellites on launch #21 in the year 2016 (2016-03-29 UTC)

Documentation

Showing up to 5 results
|